Location: Bridgewater
(44.3670°N, 64.5170°W)
Time: 08:30:31
(UTC-04:00)

Amateur Radio Satellites - All Passes

Search period start: 01 March 2015 08:00
Search period end: 02 March 2015 08:00
Location: Bridgewater, 44.3670°N, 64.5170°W

Satellite Date Start Highest point End Downlink Frequencies (MHz)
Time Altitude Azimuth
GONETS M04 01 Mar 08:04:49 08:12:15 31° 65° (ENE) 08:19:54
CUTE 1.7 + AOD 2 01 Mar 08:05:58 08:08:13 14° 89° (E) 08:10:39 437.475
AIST 1 01 Mar 08:06:53 08:11:06 48° 283° (WNW) 08:15:22
BRITE-PL 01 Mar 08:15:01 08:19:05 30° 93° (E) 08:22:56 437.365/2234.400
GOMX 1 01 Mar 08:29:05 08:32:51 27° 93° (E) 08:36:30 467.674
UNISAT 6 01 Mar 08:36:07 08:37:22 11° 61° (ENE) 08:38:49 437.425
Cubesat XI-IV 01 Mar 08:37:52 08:40:36 14° 303° (WNW) 08:43:06 437.490
ISS 01 Mar 08:47:42 08:48:50 12° 132° (SE) 08:50:03 145.825
CUTE-I 01 Mar 08:48:06 08:50:00 12° 304° (NW) 08:51:38 437.470
RS-15 01 Mar 08:55:26 09:06:53 83° 238° (WSW) 09:18:50 29.354- 29.394
AAUSAT CUBESAT 2 01 Mar 08:55:27 08:59:07 29° 95° (E) 09:02:49 437.432
COMPASS 1 01 Mar 08:56:30 09:00:20 34° 96° (E) 09:04:13 437.405
TIGRISAT 01 Mar 09:00:06 09:03:09 19° 65° (ENE) 09:06:17 435.000
DOVE 4 01 Mar 09:11:59 09:16:14 52° 99° (E) 09:20:19 437.250
ANTELSAT 01 Mar 09:12:05 09:15:41 25° 67° (ENE) 09:19:17 437.575/2403.000
QB50P1 01 Mar 09:15:34 09:18:09 16° 64° (ENE) 09:20:52 145.935-145.965
FUNcube-1 01 Mar 09:17:27 09:18:53 12° 88° (E) 09:20:31 145.935
ZACube-1 01 Mar 09:17:54 09:19:30 12° 88° (E) 09:21:18 437.345
QB50P2 01 Mar 09:18:32 09:21:20 18° 64° (ENE) 09:24:14 145.880/145.840
SEEDS 01 Mar 09:21:00 09:25:15 79° 102° (ESE) 09:29:29 437.485
CANX-2 01 Mar 09:21:26 09:25:41 79° 284° (WNW) 09:29:56 2200.000
UKube-1 01 Mar 09:28:43 09:31:09 15° 90° (E) 09:33:46 .
O/OREOS (USA 219) 01 Mar 09:31:16 09:35:33 42° 107° (ESE) 09:39:55 437.305
UWE-3 01 Mar 09:31:51 09:35:01 21° 92° (E) 09:38:16 435.000/436.395/437.385
CINEMA 3 01 Mar 09:32:56 09:37:00 46° 98° (E) 09:41:00 145.822/145.860
DUCHIFAT 1 01 Mar 09:34:28 09:37:53 24° 67° (ENE) 09:41:22 145.980
BUGSAT 1 01 Mar 09:34:38 09:37:37 19° 65° (ENE) 09:40:41 437.445
HO-68 01 Mar 09:35:38 09:42:52 86° 288° (WNW) 09:50:05 435.675
SO-50 01 Mar 09:36:32 09:40:35 25° 39° (NE) 09:44:42 436.795
CUTE 1.7 + AOD 2 01 Mar 09:40:24 09:44:33 54° 287° (WNW) 09:48:41 437.475
POLYITAN 1 01 Mar 09:52:03 09:55:59 37° 70° (ENE) 09:59:58 437.675
POPSAT HIP 1 01 Mar 09:53:26 09:57:24 37° 70° (ENE) 10:01:23 437.405
BRITE-PL 01 Mar 09:53:34 09:57:37 28° 293° (WNW) 10:01:20 437.365/2234.400
GONETS M04 01 Mar 10:01:12 10:09:49 64° 267° (W) 10:18:25
CUBEBUG 2 01 Mar 10:05:03 10:09:11 59° 100° (E) 10:13:17 437.445
GOMX 1 01 Mar 10:07:09 10:11:02 29° 292° (WNW) 10:14:42 467.674
UNISAT 6 01 Mar 10:09:11 10:13:37 84° 254° (WSW) 10:18:00 437.425
Oscar 11 01 Mar 10:10:20 10:14:41 88° 284° (WNW) 10:19:01 145.826/435.025
DELFI C3 01 Mar 10:13:13 10:17:20 82° 104° (ESE) 10:21:25 145.870
NANOSAT C BR1 01 Mar 10:16:58 10:21:13 67° 74° (ENE) 10:25:29 145.865
ISS 01 Mar 10:21:36 10:24:49 84° 152° (SSE) 10:28:04 145.825
AISAT 01 Mar 10:27:23 10:31:13 28° 95° (E) 10:35:04 437.250
AAUSAT CUBESAT 2 01 Mar 10:31:12 10:34:42 26° 292° (WNW) 10:38:09 437.432
DX 1 01 Mar 10:31:36 10:36:00 73° 103° (ESE) 10:40:20 434.975-435.025
COMPASS 1 01 Mar 10:32:35 10:35:54 22° 293° (WNW) 10:39:09 437.405
TIGRISAT 01 Mar 10:35:24 10:39:39 45° 261° (W) 10:43:51 435.000
VELOX 1 01 Mar 10:37:35 10:41:39 34° 96° (E) 10:45:43 145.980
CUBEBUG 1 01 Mar 10:37:41 10:40:20 16° 89° (E) 10:43:08 437.445
ESTCUBE 1 01 Mar 10:47:04 10:50:36 22° 92° (E) 10:54:14 437.505/2401.250
ANTELSAT 01 Mar 10:48:23 10:52:24 32° 264° (W) 10:56:19 437.575/2403.000
QB50P1 01 Mar 10:49:27 10:53:40 54° 260° (W) 10:57:53 145.935-145.965
DOVE 4 01 Mar 10:50:56 10:53:37 16° 297° (WNW) 10:56:06 437.250
FUNcube-1 01 Mar 10:51:38 10:55:45 62° 286° (WNW) 10:59:50 145.935
ZACube-1 01 Mar 10:52:16 10:56:23 60° 286° (WNW) 11:00:28 437.345
QB50P2 01 Mar 10:52:45 10:56:55 49° 261° (W) 11:01:06 145.880/145.840
CUSAT 1 01 Mar 10:56:04 10:58:29 30° 74° (ENE) 11:00:51 437.405
SEEDS 01 Mar 10:59:07 11:00:32 11° 298° (WNW) 11:01:45 437.485
UKube-1 01 Mar 11:03:27 11:07:43 54° 288° (WNW) 11:11:57 .
UWE-3 01 Mar 11:07:56 11:11:43 34° 290° (WNW) 11:15:27 435.000/436.395/437.385
HUMSAT D 01 Mar 11:08:41 11:12:48 75° 285° (WNW) 11:16:54 437.325/437.525
BUGSAT 1 01 Mar 11:08:43 11:12:49 44° 261° (W) 11:16:56 437.445
RS-15 01 Mar 11:09:35 11:17:57 22° 258° (WSW) 11:25:54 29.354- 29.394
DUCHIFAT 1 01 Mar 11:09:42 11:13:36 33° 263° (W) 11:17:30 145.980
CINEMA 3 01 Mar 11:11:09 11:13:55 17° 296° (WNW) 11:16:31 145.822/145.860
O/OREOS (USA 219) 01 Mar 11:11:29 11:15:12 23° 307° (NW) 11:18:52 437.305
SO-50 01 Mar 11:16:40 11:21:32 60° 239° (WSW) 11:26:23 436.795
SPROUT 01 Mar 11:18:12 11:18:47 10° 86° (E) 11:19:38 437.525
50 SAT 01 Mar 11:23:07 11:27:04 71° 286° (WNW) 11:31:00 437.505
HO-68 01 Mar 11:24:47 11:29:44 20° 306° (NW) 11:34:25 435.675
TISAT 1 01 Mar 11:27:20 11:28:46 12° 87° (E) 11:30:25 437.305
POLYITAN 1 01 Mar 11:28:42 11:32:04 21° 267° (W) 11:35:20 437.675
POPSAT HIP 1 01 Mar 11:30:06 11:33:27 21° 268° (W) 11:36:41 437.405
CUBEBUG 2 01 Mar 11:43:17 11:45:29 14° 297° (WNW) 11:47:32 437.445
Oscar 11 01 Mar 11:49:46 11:50:15 10° 300° (WNW) 11:50:30 145.826/435.025
DELFI C3 01 Mar 11:51:16 11:51:59 10° 299° (WNW) 11:52:30 145.870
Oscar 19 01 Mar 11:51:20 11:55:23 25° 64° (ENE) 11:59:34 437.125/150
NANOSAT C BR1 01 Mar 11:55:52 11:57:38 12° 273° (W) 11:59:09 145.865
ISS 01 Mar 11:58:44 12:01:33 27° 347° (NNW) 12:04:22 145.825
DANDE 01 Mar 11:59:35 12:02:06 30° 265° (W) 12:04:26 436.750
GONETS M04 01 Mar 12:01:54 12:05:04 12° 286° (WNW) 12:07:34
AISAT 01 Mar 12:03:55 12:07:50 30° 292° (WNW) 12:11:41 437.250
DX 1 01 Mar 12:09:37 12:11:44 13° 299° (WNW) 12:13:39 434.975-435.025
CUBEBUG 1 01 Mar 12:12:46 12:17:06 52° 288° (WNW) 12:21:22 437.445
VELOX 1 01 Mar 12:14:25 12:18:07 25° 294° (WNW) 12:21:42 145.980
ESTCUBE 1 01 Mar 12:23:24 12:27:40 39° 290° (WNW) 12:31:53 437.505/2401.250
Gurwin Techsat 1B 01 Mar 12:48:32 12:52:31 23° 63° (ENE) 12:56:39 435.225
SPROUT 01 Mar 12:51:13 12:55:32 76° 285° (WNW) 12:59:48 437.525
TISAT 1 01 Mar 13:00:54 13:05:08 66° 286° (WNW) 13:09:17 437.305
ITAMSAT 1 01 Mar 13:24:06 13:29:13 59° 72° (ENE) 13:34:23 435.822/435.867
Oscar 19 01 Mar 13:29:35 13:34:31 46° 261° (W) 13:39:28 437.125/150
SWISSCUBE 01 Mar 13:30:57 13:35:32 42° 98° (E) 13:40:07 437.505
ISS 01 Mar 13:35:59 13:38:39 23° 7° (N) 13:41:20 145.825
BEESAT 01 Mar 13:39:50 13:44:29 48° 99° (E) 13:49:08 436.000
AO-7 01 Mar 13:41:53 13:48:18 26° 53° (NE) 13:54:53 29.400- 29.500
HORYU 2 01 Mar 13:43:39 13:46:29 17° 63° (ENE) 13:49:28 437.375
ITUPSAT 1 01 Mar 14:06:07 14:10:59 85° 106° (ESE) 14:15:49 437.325
KKS-1 01 Mar 14:16:31 14:19:58 22° 93° (E) 14:23:31 437.445
STARS 01 Mar 14:26:41 14:29:43 19° 91° (E) 14:32:53 437.465
Gurwin Techsat 1B 01 Mar 14:26:58 14:32:10 54° 260° (W) 14:37:24 435.225
JAS-2 01 Mar 14:36:45 14:40:53 22° 59° (ENE) 14:45:30 435.910
YUBILEINY 01 Mar 15:01:40 15:07:45 23° 80° (E) 15:14:13 435.215
ITAMSAT 1 01 Mar 15:05:25 15:09:11 19° 270° (W) 15:12:46 435.822/435.867
SWISSCUBE 01 Mar 15:09:19 15:13:12 24° 295° (WNW) 15:16:58 437.505
ISS 01 Mar 15:12:21 15:15:34 58° 27° (NNE) 15:18:46 145.825
BEESAT 01 Mar 15:18:23 15:22:04 22° 296° (WNW) 15:25:37 436.000
HORYU 2 01 Mar 15:18:28 15:22:48 53° 260° (W) 15:27:10 437.375
AO-7 01 Mar 15:31:56 15:40:19 83° 253° (WSW) 15:48:42 29.400- 29.500
ITUPSAT 1 01 Mar 15:45:54 15:48:17 13° 300° (WNW) 15:50:26 437.325
KKS-1 01 Mar 15:52:39 15:56:47 37° 290° (WNW) 16:00:50 437.445
STARS 01 Mar 16:02:17 16:06:28 44° 289° (WNW) 16:10:37 437.465
JAS-2 01 Mar 16:20:03 16:25:26 62° 260° (W) 16:31:30 435.910
Cubesat XI-IV 01 Mar 16:40:45 16:45:09 27° 64° (ENE) 16:49:39 437.490
ISS 01 Mar 16:49:14 16:51:46 21° 223° (SW) 16:54:16 145.825
CUTE-I 01 Mar 16:49:51 16:54:30 32° 66° (ENE) 16:59:15 437.470
MOZHAYETS 4 01 Mar 16:53:24 16:57:56 52° 99° (E) 17:02:29
YUBILEINY 01 Mar 16:54:54 17:03:39 81° 280° (W) 17:12:31 435.215
M-CUBED/EXP-1 PRIME 01 Mar 17:01:40 17:05:51 79° 108° (ESE) 17:10:21 437.505
AUBIESAT-1 01 Mar 17:04:50 17:09:01 76° 108° (ESE) 17:13:32 437.475
BEESAT 3 01 Mar 17:20:25 17:24:01 31° 116° (ESE) 17:27:43 437.485
AO-7 01 Mar 17:29:03 17:34:31 18° 274° (W) 17:39:30 29.400- 29.500
AIST 2 01 Mar 17:35:31 17:38:02 16° 111° (ESE) 17:40:43 435.215
BEESAT 2 01 Mar 17:44:01 17:47:57 47° 119° (ESE) 17:51:59 435.950
VERMONT LUNAR 01 Mar 17:48:04 17:50:01 14° 153° (SSE) 17:52:02 437.305
O/OREOS (USA 219) 01 Mar 18:01:20 18:03:59 15° 48° (NE) 18:06:46 437.305
AIST 1 01 Mar 18:12:18 18:16:36 47° 77° (ENE) 18:20:52
Cubesat XI-IV 01 Mar 18:19:55 18:25:03 45° 262° (W) 18:30:13 437.490
HO-68 01 Mar 18:21:04 18:25:39 19° 53° (NE) 18:30:29 435.675
STRAND 1 01 Mar 18:22:59 18:26:57 23° 92° (E) 18:31:02 437.568
CUTE-I 01 Mar 18:29:32 18:34:31 38° 263° (W) 18:39:30 437.470
PRISM 01 Mar 18:30:05 18:34:06 40° 98° (E) 18:38:07 437.425
MOZHAYETS 4 01 Mar 18:31:33 18:34:50 19° 296° (WNW) 18:38:00
M-CUBED/EXP-1 PRIME 01 Mar 18:38:25 18:40:23 13° 302° (WNW) 18:42:15 437.505
AUBIESAT-1 01 Mar 18:41:25 18:43:31 13° 302° (WNW) 18:45:30 437.475
CUBESAT XI-V 01 Mar 18:48:32 18:53:15 64° 101° (E) 18:57:55 437.345
YUBILEINY 01 Mar 18:56:14 19:02:14 19° 304° (NW) 19:07:53 435.215
BEESAT 3 01 Mar 18:58:25 19:02:06 31° 314° (NW) 19:05:50 437.485
CUTE 1.7 + AOD 2 01 Mar 19:01:19 19:03:25 14° 63° (ENE) 19:05:40 437.475
AIST 2 01 Mar 19:12:00 19:16:14 60° 308° (NW) 19:20:30 435.215
PHONESAT 2.4 01 Mar 19:19:08 19:22:12 26° 161° (SSE) 19:25:18 2401.200-2431.200
BEESAT 2 01 Mar 19:23:00 19:26:23 23° 318° (NW) 19:29:45 435.950
VERMONT LUNAR 01 Mar 19:24:11 19:27:25 36° 169° (SSE) 19:30:39 437.305
BRITE-PL 01 Mar 19:26:02 19:31:24 48° 71° (ENE) 19:36:37 437.365/2234.400
GOMX 1 01 Mar 19:37:42 19:42:42 41° 71° (ENE) 19:47:33 467.674
O/OREOS (USA 219) 01 Mar 19:39:26 19:44:03 76° 248° (WSW) 19:48:36 437.305
AAUSAT CUBESAT 2 01 Mar 19:48:25 19:51:49 25° 68° (ENE) 19:55:16 437.432
COMPASS 1 01 Mar 19:49:46 19:53:22 30° 69° (ENE) 19:57:02 437.405
AIST 1 01 Mar 19:51:05 19:53:55 16° 274° (W) 19:56:33
STRAND 1 01 Mar 20:01:30 20:06:27 48° 290° (WNW) 20:11:22 437.568
HO-68 01 Mar 20:05:20 20:12:29 84° 72° (ENE) 20:19:41 435.675
PRISM 01 Mar 20:06:13 20:09:23 20° 295° (WNW) 20:12:26 437.425
SEEDS 01 Mar 20:14:41 20:18:50 67° 74° (ENE) 20:23:00 437.485
FUNcube-1 01 Mar 20:15:10 20:17:15 14° 63° (ENE) 20:19:30 145.935
ZACube-1 01 Mar 20:15:49 20:18:02 14° 64° (ENE) 20:20:23 437.345
CANX-2 01 Mar 20:15:52 20:20:05 90° 89° (E) 20:24:20 2200.000
DOVE 4 01 Mar 20:18:18 20:23:26 69° 75° (ENE) 20:28:20 437.250
UKube-1 01 Mar 20:25:29 20:28:18 18° 64° (ENE) 20:31:15 .
CUBESAT XI-V 01 Mar 20:27:16 20:30:14 16° 297° (WNW) 20:33:02 437.345
HUMSAT D 01 Mar 20:30:45 20:31:02 10° 61° (ENE) 20:31:33 437.325/437.525
UWE-3 01 Mar 20:30:47 20:34:17 24° 67° (ENE) 20:37:48 435.000/436.395/437.385
CUTE 1.7 + AOD 2 01 Mar 20:34:44 20:38:55 62° 260° (W) 20:43:06 437.475
CINEMA 3 01 Mar 20:35:47 20:40:29 56° 73° (ENE) 20:45:00 145.822/145.860
PCSat 01 Mar 20:42:27 20:47:28 41° 113° (ESE) 20:52:35 145.827
AIST 2 01 Mar 20:53:58 20:55:46 12° 329° (NNW) 20:57:29 435.215
PHONESAT 2.4 01 Mar 20:56:48 21:00:18 45° 177° (S) 21:03:47 2401.200-2431.200
VERMONT LUNAR 01 Mar 21:01:42 21:05:02 42° 186° (S) 21:08:21 437.305
DELFI C3 01 Mar 21:02:42 21:06:40 62° 74° (ENE) 21:10:41 145.870
CUBEBUG 2 01 Mar 21:04:40 21:09:08 63° 74° (ENE) 21:13:29 437.445
BRITE-PL 01 Mar 21:05:21 21:10:06 27° 268° (W) 21:14:38 437.365/2234.400
Oscar 11 01 Mar 21:06:32 21:10:50 87° 77° (ENE) 21:15:10 145.826/435.025
GONETS M04 01 Mar 21:08:44 21:16:00 32° 84° (E) 21:23:28
GOMX 1 01 Mar 21:16:19 21:20:57 28° 267° (W) 21:25:21 467.674
AAUSAT CUBESAT 2 01 Mar 21:23:45 21:27:25 29° 265° (W) 21:31:02 437.432
COMPASS 1 01 Mar 21:25:39 21:29:07 25° 266° (W) 21:32:32 437.405
AISAT 01 Mar 21:26:57 21:30:55 32° 68° (ENE) 21:34:57 437.250
DX 1 01 Mar 21:28:35 21:32:59 78° 75° (ENE) 21:37:24 434.975-435.025
CUBEBUG 1 01 Mar 21:35:45 21:38:40 18° 64° (ENE) 21:41:44 437.445
VELOX 1 01 Mar 21:36:50 21:40:59 39° 70° (ENE) 21:45:11 145.980
ESTCUBE 1 01 Mar 21:48:29 21:52:11 26° 67° (ENE) 21:56:00 437.505/2401.250
FUNcube-1 01 Mar 21:48:49 21:53:11 66° 258° (WSW) 21:57:28 145.935
ZACube-1 01 Mar 21:49:38 21:54:00 64° 259° (W) 21:58:17 437.345
SEEDS 01 Mar 21:53:48 21:55:12 11° 273° (W) 21:56:23 437.485
HO-68 01 Mar 21:56:13 22:01:11 19° 272° (W) 22:05:51 435.675
DOVE 4 01 Mar 21:58:31 22:01:40 16° 271° (W) 22:04:32 437.250
UKube-1 01 Mar 21:59:52 22:04:07 51° 260° (W) 22:08:24 .
UNISAT 6 01 Mar 22:00:37 22:03:23 17° 91° (E) 22:06:18 437.425
HUMSAT D 01 Mar 22:02:02 22:06:15 87° 257° (WSW) 22:10:27 437.325/437.525
UWE-3 01 Mar 22:06:36 22:10:43 35° 263° (W) 22:14:42 435.000/436.395/437.385
50 SAT 01 Mar 22:11:10 22:15:10 85° 77° (ENE) 22:19:10 437.505
SPROUT 01 Mar 22:14:09 22:15:33 12° 61° (ENE) 22:17:10 437.525
CINEMA 3 01 Mar 22:14:53 22:18:03 17° 270° (W) 22:20:57 145.822/145.860
TISAT 1 01 Mar 22:21:43 22:23:31 13° 62° (ENE) 22:25:30 437.305
TIGRISAT 01 Mar 22:25:33 22:29:19 30° 96° (E) 22:33:08 435.000
PCSat 01 Mar 22:26:04 22:31:00 34° 312° (NW) 22:35:57 145.827
QB50P1 01 Mar 22:33:48 22:37:01 21° 92° (E) 22:40:18 145.935-145.965
PHONESAT 2.4 01 Mar 22:35:07 22:38:27 34° 194° (SSW) 22:41:45 2401.200-2431.200
QB50P2 01 Mar 22:37:07 22:40:30 23° 93° (E) 22:43:56 145.880/145.840
ANTELSAT 01 Mar 22:38:17 22:42:23 42° 99° (E) 22:46:30 437.575/2403.000
VERMONT LUNAR 01 Mar 22:39:47 22:42:33 22° 202° (SSW) 22:45:16 437.305
DELFI C3 01 Mar 22:40:58 22:42:23 11° 272° (W) 22:43:36 145.870
CUBEBUG 2 01 Mar 22:43:55 22:46:18 14° 271° (W) 22:48:27 437.445
BUGSAT 1 01 Mar 22:50:03 22:53:23 23° 93° (E) 22:56:44 437.445
DUCHIFAT 1 01 Mar 22:52:55 22:56:44 33° 96° (E) 23:00:34 145.980
AISAT 01 Mar 23:03:42 23:07:34 27° 266° (W) 23:11:24 437.250
GONETS M04 01 Mar 23:03:53 23:12:26 59° 285° (WNW) 23:21:00
DX 1 01 Mar 23:08:49 23:09:53 11° 273° (W) 23:10:42 434.975-435.025
CUBEBUG 1 01 Mar 23:10:22 23:14:42 51° 261° (W) 23:19:05 437.445
POLYITAN 1 01 Mar 23:11:36 23:15:46 55° 100° (E) 23:19:55 437.675
POPSAT HIP 1 01 Mar 23:12:42 23:16:52 55° 100° (E) 23:21:01 437.405
VELOX 1 01 Mar 23:14:10 23:17:44 22° 267° (W) 23:21:12 145.980
RS-15 01 Mar 23:20:46 23:31:11 56° 115° (ESE) 23:41:51 29.354- 29.394
ESTCUBE 1 01 Mar 23:24:49 23:28:58 34° 264° (W) 23:33:07 437.505/2401.250
DANDE 01 Mar 23:28:51 23:34:18 27° 94° (E) 23:38:50 436.750
NANOSAT C BR1 01 Mar 23:36:18 23:40:33 81° 285° (WNW) 23:44:45 145.865
UNISAT 6 01 Mar 23:36:22 23:40:29 46° 288° (WNW) 23:44:37 437.425
ITUPSAT 1 01 Mar 23:39:15 23:41:56 16° 61° (ENE) 23:44:49 437.325
SPROUT 01 Mar 23:46:44 23:51:05 81° 257° (WSW) 23:55:27 437.525
TISAT 1 01 Mar 23:54:33 23:58:50 72° 259° (WSW) 00:03:08 437.305
TIGRISAT 02 Mar 00:02:26 00:06:02 26° 292° (WNW) 00:09:35 435.000
CUSAT 1 02 Mar 00:04:12 00:10:30 60° 99° (E) 00:15:16 437.405
QB50P1 02 Mar 00:09:09 00:13:03 36° 290° (WNW) 00:16:54 145.935-145.965
QB50P2 02 Mar 00:12:41 00:16:30 33° 291° (WNW) 00:20:16 145.880/145.840
PHONESAT 2.4 02 Mar 00:14:39 00:16:19 13° 209° (SSW) 00:17:55 2401.200-2431.200
ANTELSAT 02 Mar 00:15:48 00:18:57 20° 294° (WNW) 00:22:00 437.575/2403.000
BUGSAT 1 02 Mar 00:25:12 00:28:58 32° 291° (WNW) 00:32:36 437.445
BEESAT 2 02 Mar 00:26:21 00:27:00 10° 29° (NNE) 00:27:47 435.950
DUCHIFAT 1 02 Mar 00:29:03 00:32:28 24° 293° (WNW) 00:35:48 145.980
SWISSCUBE 02 Mar 00:39:05 00:43:45 59° 73° (ENE) 00:48:30 437.505
BEESAT 02 Mar 00:47:52 00:52:35 66° 73° (ENE) 00:57:22 436.000
POLYITAN 1 02 Mar 00:48:45 00:51:20 15° 297° (WNW) 00:53:45 437.675
POPSAT HIP 1 02 Mar 00:49:49 00:52:22 15° 297° (WNW) 00:54:47 437.405
GONETS M04 02 Mar 01:07:59 01:11:46 13° 310° (NW) 01:15:01
YUBILEINY 02 Mar 01:09:18 01:12:19 12° 49° (NE) 01:15:55 435.215
DANDE 02 Mar 01:11:01 01:17:37 48° 283° (WNW) 01:22:36 436.750
ITUPSAT 1 02 Mar 01:14:34 01:19:20 71° 258° (WSW) 01:24:09 437.325
KKS-1 02 Mar 01:16:23 01:20:04 26° 67° (ENE) 01:23:50 437.445
STARS 02 Mar 01:25:27 01:28:47 22° 65° (ENE) 01:32:13 437.465
SO-50 02 Mar 01:33:03 01:37:03 30° 115° (ESE) 01:41:14 436.795
RS-15 02 Mar 01:33:15 01:43:50 51° 320° (NW) 01:54:35 29.354- 29.394
ITAMSAT 1 02 Mar 01:36:22 01:39:50 18° 90° (E) 01:43:28 435.822/435.867
BEESAT 3 02 Mar 01:37:51 01:41:40 35° 47° (NE) 01:45:28 437.485
Oscar 19 02 Mar 01:39:11 01:44:13 55° 100° (E) 01:49:15 437.125/150
CUSAT 1 02 Mar 01:49:18 01:53:29 19° 290° (WNW) 01:56:51 437.405
AIST 2 02 Mar 01:54:27 01:57:47 22° 40° (NE) 02:01:09 435.215
BEESAT 2 02 Mar 02:02:09 02:06:13 50° 50° (NE) 02:10:15 435.950
SWISSCUBE 02 Mar 02:19:00 02:22:05 16° 271° (W) 02:25:02 437.505
M-CUBED/EXP-1 PRIME 02 Mar 02:21:02 02:22:01 11° 57° (ENE) 02:23:09 437.505
AUBIESAT-1 02 Mar 02:24:02 02:24:48 11° 57° (ENE) 02:25:44 437.475
BEESAT 02 Mar 02:28:15 02:31:00 15° 272° (W) 02:33:31 436.000
Gurwin Techsat 1B 02 Mar 02:41:22 02:46:35 54° 99° (E) 02:51:48 435.225
KKS-1 02 Mar 02:52:32 02:56:38 33° 264° (W) 03:00:41 437.445
STARS 02 Mar 03:00:50 03:05:03 40° 262° (W) 03:09:14 437.465
YUBILEINY 02 Mar 03:03:06 03:11:47 56° 75° (ENE) 03:20:26 435.215
HORYU 2 02 Mar 03:08:34 03:12:14 25° 94° (E) 03:15:59 437.375
SO-50 02 Mar 03:13:09 03:17:32 38° 315° (NW) 03:22:01 436.795
ITAMSAT 1 02 Mar 03:14:40 03:19:50 61° 288° (WNW) 03:24:58 435.822/435.867
BEESAT 3 02 Mar 03:16:09 03:19:40 27° 245° (WSW) 03:23:05 437.485
Oscar 19 02 Mar 03:19:23 03:23:14 21° 297° (WNW) 03:26:57 437.125/150
JAS-2 02 Mar 03:26:46 03:32:08 22° 88° (E) 03:38:00 435.910
AO-7 02 Mar 03:32:18 03:39:15 30° 93° (E) 03:46:24 29.400- 29.500
AIST 2 02 Mar 03:32:32 03:36:44 54° 240° (WSW) 03:40:50 435.215
BEESAT 2 02 Mar 03:41:11 03:44:05 18° 248° (WSW) 03:46:50 435.950
PCSat 02 Mar 03:46:42 03:48:50 12° 29° (NNE) 03:51:08 145.827
RS-15 02 Mar 03:50:40 03:59:38 27° 352° (N) 04:08:48 29.354- 29.394
M-CUBED/EXP-1 PRIME 02 Mar 03:53:20 03:56:35 52° 254° (WSW) 03:59:56 437.505
AUBIESAT-1 02 Mar 03:56:01 03:59:16 55° 254° (WSW) 04:02:40 437.475
MOZHAYETS 4 02 Mar 03:56:54 04:01:22 58° 73° (ENE) 04:05:53
Gurwin Techsat 1B 02 Mar 04:22:06 04:26:15 23° 297° (WNW) 04:30:16 435.225
HORYU 2 02 Mar 04:44:57 04:48:59 33° 291° (WNW) 04:52:56 437.375
SO-50 02 Mar 04:58:18 04:59:30 11° 337° (NNW) 05:00:36 436.795
YUBILEINY 02 Mar 05:00:31 05:08:17 35° 275° (W) 05:15:51 435.215
JAS-2 02 Mar 05:10:33 05:17:56 83° 286° (WNW) 05:25:47 435.910
PRISM 02 Mar 05:22:09 05:25:58 37° 70° (ENE) 05:29:52 437.425
AO-7 02 Mar 05:24:29 05:32:42 65° 294° (WNW) 05:40:50 29.400- 29.500
PCSat 02 Mar 05:28:25 05:33:42 48° 52° (NE) 05:38:57 145.827
MOZHAYETS 4 02 Mar 05:36:19 05:39:04 15° 272° (W) 05:41:39
STRAND 1 02 Mar 05:40:13 05:44:56 39° 68° (ENE) 05:49:44 437.568
CUBESAT XI-V 02 Mar 05:53:21 05:58:01 75° 75° (ENE) 06:02:46 437.345
RS-15 02 Mar 06:06:32 06:16:24 34° 25° (NNE) 06:26:48 29.354- 29.394
Cubesat XI-IV 02 Mar 06:35:14 06:40:36 65° 101° (ESE) 06:45:55 437.490
AIST 1 02 Mar 06:44:01 06:47:36 26° 89° (E) 06:51:17
CUTE-I 02 Mar 06:44:26 06:49:50 77° 103° (ESE) 06:55:11 437.470
JAS-2 02 Mar 06:57:06 07:02:10 20° 302° (WNW) 07:07:12 435.910
PRISM 02 Mar 06:58:32 07:01:39 20° 268° (W) 07:04:41 437.425
PCSat 02 Mar 07:12:20 07:16:53 27° 250° (WSW) 07:21:21 145.827
GONETS M04 02 Mar 07:16:32 07:21:50 18° 55° (NE) 07:27:35
AO-7 02 Mar 07:19:03 07:24:06 17° 314° (NW) 07:28:49 29.400- 29.500
STRAND 1 02 Mar 07:19:49 07:24:16 28° 266° (W) 07:28:39 437.568
BRITE-PL 02 Mar 07:32:54 07:33:34 10° 84° (E) 07:34:31 437.365/2234.400
HO-68 02 Mar 07:33:46 07:36:52 14° 84° (E) 07:40:27 435.675
CUBESAT XI-V 02 Mar 07:34:01 07:36:07 12° 274° (W) 07:38:00 437.345
